| time (UTC) | temp F | wind direction | speed MPH | gust MPH | rain 1hr in | rain 24hr in | rain mn in | humidity % | barometer mb |
| 20260830234923 | 63 | 236 | 2.0 | 5.0 | 0.00 | 1.01 | 0.71 | 96 | 1001.0 |
| 20260830232928 | 63 | 219 | 0.0 | 2.0 | 0.00 | 1.01 | 0.71 | 96 | 1000.8 |
| 20260830231426 | 62 | 230 | 2.0 | 5.0 | 0.02 | 1.01 | 0.71 | 97 | 1000.6 |
| 20260830225432 | 62 | 188 | 0.0 | 3.0 | 0.03 | 1.08 | 0.71 | 97 | 1000.8 |
| 20260830223917 | 62 | 127 | 2.0 | 4.0 | 0.03 | 1.08 | 0.71 | 96 | 1001.0 |
| 20260830221938 | 61 | 52 | 0.0 | 5.0 | 0.02 | 1.07 | 0.70 | 96 | 1001.4 |
| 20260830220431 | 61 | 130 | 1.0 | 4.0 | 0.00 | 1.04 | 0.68 | 96 | 1002.2 |
| 20260830214924 | 61 | 89 | 2.0 | 7.0 | 0.01 | 1.66 | 0.68 | 96 | 1001.9 |
| 20260830212923 | 60 | 93 | 2.0 | 4.0 | 0.01 | 1.66 | 0.68 | 96 | 1001.9 |
| 20260830211414 | 60 | 99 | 3.0 | 11.0 | 0.02 | 1.66 | 0.68 | 96 | 1001.7 |
| 20260830205431 | 60 | 72 | 6.0 | 10.0 | 0.54 | 1.66 | 0.68 | 95 | 1001.7 |
| 20260830203912 | 60 | 216 | 0.0 | 5.0 | 0.64 | 1.65 | 0.67 | 95 | 1001.7 |
| 20260830201924 | 60 | 88 | 3.0 | 4.0 | 0.66 | 1.65 | 0.67 | 94 | 1001.7 |
| 20260830195930 | 61 | 223 | 12.0 | 16.0 | 0.30 | 1.29 | 0.31 | 92 | 1003.6 |
| 20260830194425 | 63 | 315 | 10.0 | 13.0 | 0.05 | 1.04 | 0.06 | 90 | 1001.9 |
| 20260830192917 | 68 | 220 | 2.0 | 9.0 | 0.00 | 1.00 | 0.01 | 92 | 1002.3 |
| 20260830190924 | 68 | 117 | 7.0 | 11.0 | 0.00 | 1.00 | 0.01 | 91 | 1002.2 |
| 20260830184934 | 68 | 87 | 7.0 | 12.0 | 0.00 | 1.00 | 0.01 | 91 | 1002.3 |
| 20260830183425 | 68 | 104 | 9.0 | 17.0 | 0.00 | 1.00 | 0.01 | 90 | 1002.1 |
| 20260830181911 | 69 | 61 | 7.0 | 18.0 | 0.00 | 1.00 | 0.01 | 89 | 1003.0 |
| 20260830175923 | 69 | 84 | 11.0 | 16.0 | 0.00 | 1.00 | 0.01 | 90 | 1003.0 |
| 20260830173923 | 68 | 122 | 10.0 | 15.0 | 0.01 | 1.00 | 0.01 | 91 | 1003.2 |
| 20260830171927 | 67 | 88 | 9.0 | 14.0 | 0.01 | 1.00 | 0.01 | 92 | 1003.7 |
| 20260830165914 | 67 | 113 | 9.0 | 14.0 | 0.01 | 1.00 | 0.01 | 91 | 1004.0 |
| 20260830163940 | 68 | 113 | 10.0 | 15.0 | 0.00 | 0.99 | 0.00 | 88 | 1004.2 |
| 20260830162431 | 69 | 106 | 10.0 | 17.0 | 0.00 | 0.99 | 0.00 | 87 | 1004.5 |
| 20260830160432 | 69 | 98 | 8.0 | 16.0 | 0.00 | 0.99 | 0.00 | 88 | 1004.5 |
| 20260830154419 | 70 | 96 | 11.0 | 18.0 | 0.00 | 0.99 | 0.00 | 86 | 1004.6 |
| 20260830152916 | 69 | 128 | 9.0 | 19.0 | 0.00 | 0.99 | 0.00 | 87 | 1004.8 |
| 20260830150920 | 67 | 80 | 11.0 | 16.0 | 0.00 | 0.99 | 0.00 | 87 | 1005.3 |
| 20260830145417 | 65 | 89 | 9.0 | 17.0 | 0.00 | 0.99 | 0.00 | 89 | 1005.6 |
| 20260830143416 | 66 | 112 | 8.0 | 15.0 | 0.00 | 0.99 | 0.00 | 88 | 1006.1 |
| 20260830141915 | 63 | 66 | 7.0 | 14.0 | 0.00 | 0.99 | 0.00 | 91 | 1006.3 |
| 20260830140413 | 63 | 69 | 9.0 | 13.0 | 0.00 | 0.99 | 0.00 | 92 | 1006.3 |
| 20260830134433 | 62 | 87 | 5.0 | 9.0 | 0.00 | 0.99 | 0.00 | 92 | 1006.6 |
| 20260830132926 | 61 | 92 | 5.0 | 9.0 | 0.00 | 0.99 | 0.00 | 92 | 1006.7 |
| 20260830130919 | 59 | 80 | 3.0 | 5.0 | 0.00 | 0.99 | 0.00 | 93 | 1006.7 |
| 20260830125413 | 58 | 66 | 3.0 | 7.0 | 0.00 | 0.99 | 0.00 | 94 | 1006.9 |
| 20260830122935 | 57 | 51 | 2.0 | 5.0 | 0.00 | 0.99 | 0.00 | 94 | 1007.0 |
| 20260830120917 | 57 | 33 | 2.0 | 4.0 | 0.00 | 0.99 | 0.00 | 94 | 1007.3 |
| 20260830114431 | 57 | 51 | 2.0 | 5.0 | 0.00 | 0.99 | 0.00 | 93 | 1007.0 |
| 20260830112927 | 57 | 25 | 0.0 | 3.0 | 0.00 | 0.99 | 0.00 | 93 | 1006.9 |
| 20260830110924 | 57 | 32 | 1.0 | 4.0 | 0.00 | 0.99 | 0.00 | 93 | 1006.7 |
| 20260830104913 | 58 | 47 | 2.0 | 4.0 | 0.00 | 0.99 | 0.00 | 93 | 1006.4 |
| 20260830102924 | 58 | 43 | 0.0 | 0.0 | 0.00 | 0.99 | 0.00 | 93 | 1006.6 |
| 20260830100916 | 58 | 38 | 0.0 | 0.0 | 0.00 | 0.99 | 0.00 | 92 | 1006.5 |
| 20260830094919 | 58 | 71 | 0.0 | 2.0 | 0.00 | 0.99 | 0.00 | 92 | 1006.6 |
| 20260830092429 | 57 | 49 | 3.0 | 4.0 | 0.00 | 0.99 | 0.00 | 92 | 1006.3 |
| 20260830090917 | 57 | 69 | 0.0 | 5.0 | 0.00 | 0.99 | 0.00 | 92 | 1006.5 |
| 20260830084931 | 56 | 355 | 0.0 | 1.0 | 0.00 | 0.99 | 0.00 | 89 | 1006.1 |
| 20260830083423 | 58 | 27 | 0.0 | 3.0 | 0.00 | 0.99 | 0.00 | 88 | 1006.4 |
| 20260830081912 | 59 | 360 | 0.0 | 3.0 | 0.00 | 0.99 | 0.00 | 86 | 1005.9 |
| 20260830080410 | 62 | 48 | 1.0 | 5.0 | 0.00 | 0.99 | 0.00 | 83 | 1005.5 |
| 20260830074420 | 63 | 88 | 3.0 | 5.0 | 0.00 | 0.99 | 0.00 | 83 | 1005.7 |
| 20260830072421 | 64 | 83 | 3.0 | 8.0 | 0.00 | 0.99 | 0.00 | 80 | 1006.0 |
| 20260830070918 | 66 | 98 | 4.0 | 9.0 | 0.00 | 0.99 | 0.00 | 78 | 1006.2 |
| 20260830064930 | 66 | 109 | 3.0 | 7.0 | 0.00 | 0.99 | 0.00 | 78 | 1006.5 |
| 20260830063424 | 66 | 155 | 1.0 | 12.0 | 0.00 | 0.99 | 0.00 | 77 | 1006.9 |
| 20260830061915 | 65 | 159 | 1.0 | 7.0 | 0.00 | 0.99 | 0.00 | 77 | 1007.1 |
| 20260830055935 | 62 | 191 | 1.0 | 3.0 | 0.00 | 0.99 | 0.00 | 83 | 1007.4 |
| 20260830054431 | 63 | 107 | 0.0 | 2.0 | 0.00 | 0.99 | 0.99 | 81 | 1007.4 |
| 20260830052423 | 63 | 220 | 0.0 | 7.0 | 0.00 | 0.99 | 0.99 | 80 | 1007.3 |
| 20260830050418 | 64 | 115 | 7.0 | 12.0 | 0.00 | 0.99 | 0.99 | 77 | 1006.7 |
| 20260830044424 | 64 | 102 | 6.0 | 13.0 | 0.00 | 0.99 | 0.99 | 80 | 1006.4 |
| 20260830042429 | 64 | 115 | 10.0 | 16.0 | 0.00 | 0.99 | 0.99 | 81 | 1006.4 |
| 20260830040922 | 64 | 81 | 12.0 | 22.0 | 0.00 | 0.99 | 0.99 | 80 | 1006.4 |
| 20260830035417 | 64 | 96 | 14.0 | 20.0 | 0.00 | 0.99 | 0.99 | 82 | 1006.4 |
| 20260830033427 | 63 | 99 | 13.0 | 24.0 | 0.00 | 0.99 | 0.99 | 84 | 1006.6 |
| 20260830031921 | 63 | 119 | 9.0 | 19.0 | 0.00 | 0.99 | 0.99 | 86 | 1006.8 |
| 20260830030420 | 62 | 78 | 10.0 | 20.0 | 0.00 | 0.99 | 0.99 | 87 | 1006.6 |
| 20260830024433 | 62 | 113 | 9.0 | 17.0 | 0.00 | 0.99 | 0.99 | 89 | 1006.9 |
| 20260830022427 | 62 | 111 | 12.0 | 19.0 | 0.01 | 0.99 | 0.99 | 88 | 1006.8 |
| 20260830020917 | 63 | 93 | 10.0 | 17.0 | 0.01 | 0.99 | 0.99 | 86 | 1006.7 |
| 20260830015415 | 63 | 127 | 11.0 | 19.0 | 0.01 | 0.99 | 0.99 | 85 | 1006.9 |
| 20260830013425 | 64 | 129 | 12.0 | 21.0 | 0.01 | 0.99 | 0.99 | 85 | 1006.7 |
| 20260830011431 | 65 | 206 | 5.0 | 14.0 | 0.00 | 0.98 | 0.98 | 85 | 1007.0 |
| 20260830005931 | 64 | 106 | 7.0 | 16.0 | 0.00 | 0.98 | 0.98 | 86 | 1005.2 |
| 20260830004426 | 65 | 91 | 13.0 | 20.0 | 0.18 | 0.98 | 0.98 | 84 | 1004.7 |
| 20260830002427 | 65 | 99 | 12.0 | 19.0 | 0.24 | 0.98 | 0.98 | 89 | 1005.5 |
| 20260830000426 | 63 | 87 | 10.0 | 15.0 | 0.29 | 0.98 | 0.98 | 91 | 1005.8 |